Location: Oberhofen
(46.7315°N, 7.6690°E)
Time: 17:16:23
(UTC+00:00)

Daily predictions for brighter satellites

Satellite Brightness Start Highest point End
(mag) Time Altitude Azimuth Time Altitude Azimuth Time Altitude Azimuth
USA 267 4.4 19:51:08 10° E 19:57:11 41° NNE 20:03:14 10° NW
Cosmos 2322 Rocket 2.3 19:55:41 10° SSW 20:01:18 87° WNW 20:06:58 10° NNE
SPOT 3 Rocket 4.1 19:57:49 10° S 20:02:58 62° WSW 20:08:11 10° NNW
NOSS 7 (D) 4.0 20:00:37 10° SSW 20:03:23 48° SE 20:06:01 10° NE
Cosmos 2237 4.3 19:58:28 10° S 20:04:04 58° ESE 20:09:42 10° NNE
Cosmos 1455 2.2 20:08:22 10° N 20:12:13 69° E 20:16:03 10° SSE
Cosmos 1461 4.4 20:08:09 10° NW 20:12:29 37° WSW 20:16:49 10° S
Cosmos 1825 Rocket 4.0 20:11:45 10° SSE 20:15:57 43° E 20:20:11 10° NNE
ATLAS CENTAUR R/B 2.8 20:15:28 10° NNW 20:18:31 23° NE 20:21:30 10° E
Cosmos 1703 3.5 20:16:45 10° S 20:20:30 50° E 20:24:17 10° NNE
COSMOS 2428 3.8 20:16:54 10° SSE 20:21:26 25° ESE 20:26:00 10° NE
Cosmos 1812 Rocket 3.9 20:18:08 10° NNW 20:22:28 67° W 20:26:44 10° S
Cosmos 1844 3.9 20:18:18 10° NNW 20:24:05 67° ENE 20:29:32 11° SE
Cosmos 2322 4.1 20:19:46 10° S 20:25:09 45° ESE 20:30:35 10° NE
Cosmos 1602 Rocket 4.4 20:25:01 10° SSW 20:29:21 55° WNW 20:33:44 10° N
Cosmos 783 Rocket 4.5 20:26:08 10° S 20:31:20 68° ESE 20:36:32 10° NNE
Cosmos 2263 Rocket 4.3 20:27:57 10° NW 20:32:00 21° W 20:36:02 10° SSW
Cosmos 1709 Rocket 4.2 20:25:55 10° S 20:32:03 59° E 20:38:16 10° NNE
Nadezhda 1 Rocket 4.3 20:26:40 10° NNW 20:33:05 74° W 20:39:26 10° S
NOSS 3-3 (A) 4.5 20:28:26 10° S 20:33:37 35° ESE 20:39:20 10° NE
NOSS 3-3 (C) 4.5 20:28:33 10° S 20:33:44 35° ESE 20:39:27 10° NE
MetOp-B 4.4 20:28:47 10° S 20:34:07 73° WSW 20:39:30 10° NNW
Atlas Centaur 2 3.9 20:31:07 10° SW 20:35:09 18° S 20:38:47 12° SE
Cosmos 2237 Rocket 4.0 20:33:12 10° ESE 20:35:28 13° E 20:37:52 10° ENE
Terra 2.8 20:31:40 12° SE 20:35:35 33° ENE 20:39:50 10° N
CARTOSAT-1 4.0 20:32:57 13° SE 20:36:39 47° ENE 20:40:48 10° N
Cosmos 2333 4.4 20:31:28 10° S 20:36:55 53° ESE 20:42:27 10° NE
Cosmos 2219 Rocket 2.7 20:32:18 10° S 20:37:22 37° ESE 20:42:29 10° NE
Cosmos 2360 Rocket 2.3 20:33:32 10° SSW 20:39:11 82° WNW 20:44:54 10° NNE
IGS 5A 3.5 20:35:39 10° SSE 20:39:48 83° WSW 20:43:59 10° NNW
Cosmos 2333 Rocket 2.5 20:41:41 10° S 20:47:06 48° ESE 20:52:35 10° NE
ATLAS 2AS CENTAUR R/B 4.1 20:44:03 10° NW 20:51:06 36° NNE 20:57:39 10° E
Cosmos 1315 Rocket 3.5 20:47:33 10° N 20:51:28 42° ENE 20:54:13 18° SE
Resurs 01 Rocket 3.4 20:47:58 10° SSW 20:51:47 28° W 20:55:35 10° NW
Cosmos 1818 3.9 20:49:08 10° SW 20:54:33 71° NW 21:00:01 10° NNE
Cosmos-2242 3.3 20:50:41 10° NNW 20:55:00 68° W 20:59:06 11° S
Cosmos 773 Rocket 4.0 20:51:53 10° SSW 20:57:10 74° ESE 21:02:28 10° NNE
SL-16 R/B 4.2 20:53:27 10° WSW 20:58:27 31° NW 21:03:29 10° NNE
Cosmos 2221 3.6 20:55:59 10° N 20:59:55 32° ENE 21:02:29 18° SE
ERS-1 Rocket 3.0 20:56:51 15° SSE 21:01:04 86° ENE 21:06:09 10° NNW
GEOS 3 Rocket 3.8 20:58:19 10° NE 21:03:44 84° NW 21:09:08 10° SW
USA 215 3.2 21:00:35 10° ENE 21:07:07 64° SE 21:13:35 10° SW
Cosmos 1892 4.3 21:07:01 17° ESE 21:08:11 20° E 21:10:58 10° NE
Cosmos 2278 Rocket 3.0 21:03:33 10° NNW 21:08:58 43° NE 21:13:09 16° ESE
ATLAS 5 CENTAUR R/B 2.3 21:07:12 10° SW 21:11:18 55° NW 21:15:57 10° NNE
Meteor 1-11 4.2 21:06:07 10° S 21:11:44 90° E 21:17:28 10° NNE
Cosmos 1844 Rocket 3.5 21:08:28 10° NW 21:13:44 44° WSW 21:18:16 13° S
Cosmos 1400 Rocket 4.0 21:10:35 10° NNW 21:14:17 38° W 21:17:41 11° SSW
Gblst 52 Del rocket 4.4 21:09:02 10° WNW 21:14:44 82° NNE 21:20:33 13° ESE
SPOT 5 3.0 21:13:56 17° S 21:17:48 78° WSW 21:22:38 10° NNW
SL-16 R/B 4.2 21:19:13 10° E 21:19:53 10° E 21:20:34 10° E
Lacrosse 5 rocket 4.1 21:17:15 10° NW 21:20:20 19° N 21:23:18 10° NE
USA 81 4.1 21:19:52 13° S 21:24:39 80° W 21:29:58 10° N
Cosmos 2058 3.8 21:25:00 25° SE 21:26:34 33° E 21:30:17 10° NNE
BREEZE M DEB (TANK) 2.6 21:25:40 10° W 21:27:38 30° SW 21:27:38 30° SW
Cosmos 2181 Rocket 4.2 21:22:55 10° NNW 21:29:15 71° W 21:34:15 16° S
Cosmos 1408 4.1 21:29:06 19° ESE 21:29:39 20° E 21:32:19 10° NE
In-Cosmos 22 Rocket 4.4 21:29:55 23° SSE 21:32:52 48° E 21:37:59 10° NNE
Cosmos 2074 Rocket 4.0 21:29:16 19° S 21:33:49 68° E 21:40:00 10° NNE
TSX-5 4.1 21:32:16 10° NNW 21:35:41 51° ENE 21:37:36 27° ESE
Cosmos 1076 Rocket 4.1 21:36:08 28° SE 21:37:44 39° E 21:41:45 10° NNE
Cosmos 1680 Rocket 4.2 21:35:42 25° SSE 21:38:04 38° ESE 21:42:58 10° NE
USA 267 3.4 21:34:04 15° ESE 21:39:44 78° NNE 21:46:18 10° NW
Cosmos 2084 3.7 21:41:45 10° NW 21:46:10 63° SW 21:48:05 32° SSE
Cosmos 1842 Rocket 3.6 21:42:28 10° NNW 21:46:49 73° W 21:49:02 28° S
JB-3 4.1 21:44:23 10° NNE 21:48:16 80° ESE 21:49:57 32° S
Cosmos 2151 4.4 21:47:18 21° ESE 21:48:18 23° E 21:51:41 10° NE
MTI 3.7 21:49:07 10° N 21:52:13 78° WNW 21:53:10 41° SSW
Cosmos 923 Rocket 4.0 21:52:20 24° S 21:55:29 69° ESE 22:00:46 10° NNE
Cosmos 2327 Rocket 4.5 21:52:15 25° S 21:56:00 69° E 22:02:06 10° NNE
ATLAS CENTAUR R/B 1.8 21:54:04 10° NW 21:57:32 40° WSW 21:58:26 33° SSW
Cosmos 1825 3.2 21:58:08 28° ESE 21:58:41 30° E 22:02:01 10° NNE
ALOS 2 4.1 21:58:03 19° ESE 22:00:02 27° ENE 22:03:43 10° N
Cosmos 1980 3.7 21:56:55 24° S 22:00:19 64° ESE 22:05:54 10° NNE
Cosmos 967 Rocket 4.5 21:56:05 10° SSW 22:02:33 82° ESE 22:09:03 10° NE
Cosmos 44 4.5 22:05:15 21° ESE 22:05:15 21° ESE 22:08:08 10° ENE
COSMOS 2428 3.3 21:59:46 10° SW 22:05:19 55° WNW 22:10:56 10° NNE
Cosmos 1869 3.9 22:03:53 10° NNW 22:07:44 49° W 22:09:22 30° SSW
GP-B 4.4 22:06:26 10° NNE 22:10:11 26° E 22:11:23 23° ESE
NOSS 0 Rocket 3.9 22:07:31 15° SSW 22:12:41 90° ESE 22:18:53 10° NNE
Terra 3.1 22:10:34 18° SSW 22:13:19 32° W 22:17:35 10° NNW
Cosmos 1624 Rocket 4.3 22:09:21 10° NNW 22:14:32 59° ENE 22:16:57 30° SE
NOSS 3-4 (A) 3.9 22:07:52 10° NW 22:14:51 83° NE 22:19:47 24° SE
NOSS 3-4 (C) 3.9 22:07:59 10° NW 22:14:58 82° NE 22:19:55 24° SE
Cosmos 1610 Rocket 4.5 22:11:20 25° S 22:15:12 89° E 22:21:37 10° N
Cosmos 2237 Rocket 2.1 22:14:58 24° SSW 22:18:35 82° ESE 22:24:18 10° NNE
Genesis I 3.2 22:18:35 50° SSE 22:19:16 60° ESE 22:23:07 10° NE
Cosmos 2344 3.6 22:16:02 21° SSW 22:21:12 60° ESE 22:28:58 10° NE
Cosmos 2219 Rocket 3.5 22:16:06 10° WSW 22:21:17 39° NW 22:26:34 10° NNE
Elektron 1 4.2 22:21:21 33° SW 22:22:45 89° ESE 22:28:01 10° NE
Atlas Centaur 2 4.3 22:19:20 10° SW 22:21:21 15° SSW 22:21:21 15° SSW
DELTA 2 R/B (1) 4.0 22:24:23 10° SW 22:29:30 37° S 22:30:03 36° SSE
Thor Agena Rocket 3.4 22:25:48 10° NNE 22:30:57 90° E 22:33:18 33° SSW
Cosmos 2333 Rocket 3.9 22:26:29 10° WSW 22:31:34 33° NW 22:36:43 10° NNE
Cosmos 2221 4.2 22:33:43 10° NNW 22:37:21 26° W 22:39:20 19° SW
BREEZE-M DEB (TANK) 1.4 22:37:41 10° WNW 22:41:21 77° NNE 22:41:21 77° NNE
Iridium 2 4.0 22:37:51 10° NNW 22:41:37 56° W 22:42:26 45° SW
Cosmos 1371 Rocket 4.0 22:37:02 10° NNW 22:42:19 75° WSW 22:44:15 40° S
ATLAS 2AS CENTAUR R/B 2.8 22:35:14 10° NW 22:42:49 77° SW 22:46:25 32° SSE
Cosmos 1892 4.1 22:42:00 22° WSW 22:43:40 31° WNW 22:47:06 10° N
EO 1 Del DPAF 3.4 22:40:17 10° N 22:44:02 66° WNW 22:44:59 45° SW
Cosmos 1766 Rocket 3.7 22:44:24 47° SE 22:45:22 59° E 22:49:43 10° NNE
MOS 1-B Rocket 4.4 22:38:07 10° NNE 22:45:56 86° WNW 22:49:56 27° SSW
Okean 3 Rocket 3.5 22:47:02 49° SSE 22:48:10 74° E 22:52:36 10° NNE
Aureole 2 Rocket 2.4 22:46:30 10° NNW 22:48:59 60° NNE 22:48:59 60° NNE
Cosmos 1328 Rocket 3.9 22:45:06 10° N 22:49:21 54° ENE 22:50:25 42° SE
USA 215 4.0 22:43:42 10° NE 22:50:04 55° NNW 22:56:24 10° W
Cosmos 2112 Rocket 4.4 22:48:24 24° SW 22:51:36 63° WNW 22:56:56 10° NNE
Cosmos 1606 2.7 22:47:49 10° N 22:51:43 73° E 22:52:19 59° SE
Cosmos 2278 Rocket 3.2 22:47:53 10° NW 22:52:56 34° WSW 22:54:59 26° SW
Cosmos 2218 Rocket 4.2 22:50:54 34° SSE 22:53:38 62° E 22:59:51 10° NNE
Cosmos 2297 3.7 22:48:53 10° NNW 22:54:39 79° ENE 22:57:11 35° SE
Cosmos 158 Rocket 4.5 22:52:57 22° SW 22:55:50 52° WNW 23:00:39 10° NNE
Cosmos 1420 Rocket 4.1 22:53:13 10° NNW 22:58:32 73° ENE 23:00:36 37° SE
Cosmos 2366 rocket 4.1 22:56:35 35° SSE 22:59:18 65° E 23:05:36 10° NNE
Lacrosse 5 rocket 3.4 22:57:09 10° NW 23:00:35 26° NNE 23:03:51 10° ENE
Cosmos 1633 3.9 23:01:11 27° E 23:01:13 27° E 23:04:19 10° NNE
Cosmos 1943 Rocket 3.0 22:55:47 10° NNW 23:01:15 46° NE 23:04:40 22° ESE
SL-16 R/B 2.2 23:00:46 39° S 23:02:54 70° ESE 23:08:35 10° NNE
Cosmos 1408 4.1 23:03:24 23° WSW 23:04:31 27° WNW 23:07:37 10° NNW
Cosmos 2056 Rocket 3.9 23:00:55 10° NNW 23:06:13 55° WSW 23:07:58 38° SSW
Cosmos 1959 Rocket 4.4 23:06:20 37° S 23:08:55 77° E 23:15:08 10° N
Cosmos 1743 Rocket 4.4 23:12:36 33° ESE 23:13:21 35° E 23:17:19 10° NNE
Cosmos 2341 Rocket 4.3 23:11:46 29° SSW 23:15:00 62° WNW 23:21:11 10° N
Cosmos 332 Rocket 3.8 23:15:05 10° NNW 23:19:54 71° ENE 23:21:28 42° SE
USA 267 3.9 23:21:24 32° SSW 23:23:05 36° SW 23:29:04 10° WNW
Meteor 2-3 Rocket 3.7 23:21:02 41° S 23:23:06 79° E 23:28:49 10° NNE
IRIDIUM 104 4.4 23:23:26 40° SSW 23:25:17 69° W 23:30:31 10° N
Cosmos 2151 4.2 23:23:52 26° WSW 23:25:24 34° WNW 23:29:20 10° N
Helios 1A 2.8 23:24:53 58° SSE 23:25:40 89° ESE 23:29:52 10° NNW
Cosmos 405 3.3 23:25:23 10° N 23:28:53 53° ENE 23:29:08 52° E
Meteor 1-26 Rocket 4.3 23:26:59 10° NNW 23:33:00 81° W 23:35:20 39° S
Cosmos 1452 Rocket 3.4 23:28:02 10° NNW 23:33:20 86° WSW 23:35:06 43° SSE
SL-8 Rocket 4.3 23:30:59 30° SW 23:33:58 59° WNW 23:40:04 10° N
CZ-4C R/B 3.6 23:27:23 10° NW 23:34:14 53° NE 23:42:10 10° ESE
Cosmos 1825 4.1 23:32:56 18° W 23:34:14 21° WNW 23:37:11 10° NNW
Cosmos 1340 2.8 23:34:23 56° WSW 23:34:50 62° WNW 23:38:35 10° N
COSMOS 2455 2.8 23:29:11 10° NNW 23:35:16 82° ENE 23:38:24 30° SE
PSLV R/B 4.1 23:31:51 10° NNE 23:35:53 43° E 23:36:34 39° SE
ALOS 2 3.5 23:35:27 32° WSW 23:36:14 34° W 23:40:16 10° NNW
Cosmos 1408 Rocket 3.6 23:35:56 49° SW 23:36:58 68° W 23:41:22 10° N
Cosmos 1933 3.9 23:33:54 10° NNW 23:37:44 44° W 23:38:13 41° WSW
Cosmos 1603 4.5 23:36:25 32° SE 23:37:59 38° ESE 23:43:13 10° NE
SL-16 R/B 4.5 23:33:23 10° ESE 23:38:08 23° ENE 23:42:53 10° N
Cosmos 1151 Rocket 3.7 23:35:11 10° NNW 23:39:16 42° W 23:40:03 38° WSW
APEX 3.9 23:42:41 10° NW 23:44:21 32° NW 23:44:21 32° NW
Cosmos 1727 Rocket 4.0 23:39:13 10° NNW 23:45:26 76° W 23:48:04 37° S
Cosmos 44 3.7 23:43:38 27° WSW 23:45:40 50° NW 23:50:01 10° NNE
Cosmos 1500 Rocket 3.5 23:44:49 54° SSE 23:45:45 75° E 23:50:08 10° NNE
Cosmos 2369 Rocket 2.4 23:40:16 10° NNW 23:45:52 68° ENE 23:48:49 28° SE
Resurs 1-4 Rocket 4.3 23:43:16 10° NE 23:46:07 14° E 23:48:44 10° ESE
SL-4 R/B 3.9 23:48:59 10° NW 23:48:59 10° NW 23:48:59 10° NW
GP-B 4.3 23:43:33 10° NNW 23:47:31 32° W 23:48:50 27° WSW
ISS -1.1 23:51:00 11° E 23:51:00 11° E 23:51:14 10° E
Cosmos 371 Rocket 3.7 23:44:51 10° NNW 23:49:30 45° WSW 23:50:25 40° SW
SeaSat 1 4.1 23:46:43 10° ENE 23:50:17 20° ESE 23:51:20 18° ESE
Helios 1B rocket 2.7 23:50:38 10° NNE 23:54:42 56° E 23:55:23 49° SE
CREW DRAGON DEMO-1 DEB 4.1 23:54:49 23° WNW 23:56:17 40° NNW 23:59:13 10° ENE
